Location: Unspecified
(0.0000°N, 0.0000°E)
Time: 16:08:34
(UTC+00:00)

AAUSAT3 - Pass Details

Date: 07 August 2024
Orbit: 756 x 773 km, 98.4° (Epoch: 17 September)

Event Time Altitude Azimuth Distance (km) Brightness Sun altitude
Rises 18:59:33 0° 344° (NNW) 3,205 ? -12.9°
Reaches altitude 10° 19:02:25 10° 328° (NNW) 2,286 ? -13.6°
Maximum altitude 19:05:58 19° 282° (WNW) 1,732 ? -14.5°
Drops below altitude 10° 19:09:32 10° 237° (WSW) 2,302 ? -15.3°
Sets 19:12:27 0° 220° (SW) 3,234 ? -16.0°
